Гурдон

Франция     44˚44′12″N   1˚23′03″E
темп.,
°C
ветер,
м/с
пор.,
м/с
влажн.,
%
обл.,
%
осадки,
мм/ч
давл.,
гПа
погр.,
м
5 декабря, сб
сб501:00+1˚ю239765 0.3 99580
04:00+3˚ю369765 0.0 996342
07:00+3˚ю479682 0.0 997419
10:00+3˚ю4891100 0.0 998607
13:00+4˚ю4891100 0.0 997529
16:00+5˚ююв4790100 0.0 996592
19:00+5˚ю3896100 4.2 998575
22:00+4˚ю269798 0.9 1000294
6 декабря, вс
вс601:00+5˚ю369799 0.9 999377
04:00+5˚ююз3797100 0.1 999357
07:00+5˚юз3997100 0.9 999468
10:00+5˚зюз4993100 0.7 1000594
13:00+6˚зсз4886100 1.3 1002834
16:00+6˚зсз378453 0.3 10021091
19:00+3˚зюз399445 0.7 1003329
22:00+2˚зюз28968 0.1 1004222
7 декабря, пн
пн701:00+2˚зюз249712 0.2 1004102
04:00+2˚юз229773 0.0 100393
07:00+2˚ююз129777 0.1 100498
10:00+3˚ююв2294100 0.0 1003114
13:00+5˚ююв3590100 0.0 1002451
16:00+4˚юв3696100 2.1 1000458
19:00+4˚юв3897100 10.5 999469
22:00+6˚юз41194100 0.9 999787
8 декабря, вт
вт801:00+5˚ююз41094100 1.5 999469
04:00+5˚зюз3997100 3.4 999688
07:00+5˚ююз389799 4.6 999420
10:00+5˚з2596100 0.1 1002334
13:00+6˚сз478999 0.2 1006733
16:00+4˚сз598679 0.1 1008821
19:00+2˚сз389564 0.1 1011408
22:00+3˚зсз279188 0.0 1013406
9 декабря, ср
ср901:00сз129848 0.0 101432
04:00+2˚сз259593 0.0 1014293
07:00сз119882 0.0 101523
10:00+2˚зсз129446 0.0 1017164
13:00+4˚зсз258950 0.0 1017416
16:00+5˚зсз259180 0.0 1016521
19:00+2˚зюз119790 0.0 101722
22:00+2˚ю129695 0.0 101622